Location: Bastogne Gables
(35.1554°N, 78.9900°W)
Time: 11:38:14
(UTC+00:00)

Okean-O - Visible Passes

Search period start: 06 March 2021 00:00
Search period end: 16 March 2021 00:00
Orbit: 638 x 641 km, 98.2° (Epoch: 06 March)

Date Brightness Start Highest point End Pass type
(mag) Time Alt. Az. Time Alt. Az. Time Alt. Az.
06 Mar 2.5 00:00:36 10° SSE 00:04:58 71° ENE 00:09:24 10° N visible
07 Mar 3.2 00:23:55 10° S 00:28:17 61° WSW 00:32:40 10° NNW visible
08 Mar 4.4 00:47:42 10° SSW 00:51:40 32° W 00:55:39 10° NW visible
09 Mar 5.4 01:12:07 10° SW 01:15:06 18° W 01:18:07 10° NW visible
09 Mar 2.6 23:57:26 10° SSE 00:01:49 64° ENE 00:06:12 10° N visible
11 Mar 3.0 00:20:42 10° S 00:25:06 68° W 00:29:31 10° NNW visible
12 Mar 4.3 00:44:24 10° SSW 00:48:28 35° W 00:52:32 10° NNW visible
13 Mar 5.3 01:08:42 10° SW 01:11:54 19° W 01:15:06 10° NW visible
13 Mar 2.7 23:54:18 10° SSE 23:58:38 57° ENE 00:02:59 10° N visible
14 Mar 6.0 01:34:48 10° W 01:35:24 10° W 01:36:01 10° W visible
15 Mar 2.8 00:17:30 10° S 00:21:55 75° WSW 00:26:21 10° NNW visible
